Back to catalog

STARLINK-33922

AliveCommunicationsVLEO
NORAD 63698·PAYLOAD·🇺🇸 United States

Launched Apr 28, 2025 from Vandenberg Space Force Base

Loading…

Next Passes (next 24 hours)

TLE

FreshSource: CelesTrak SupGP

Epoch: Sep 14, 2026, 14:08 UTC

1 63698C 25087B   26257.58937500 -.00043222  00000+0 -12766-2 0  2578
2 63698  53.1605  61.1532 0001130  76.6391 329.2949 15.34422484    15

Track STARLINK-33922 in real time with AllMySat

Download on the App Store